Year,Month,Day,Hour,Minute,Value (Times are PST for temperature in C)
2011,05,20,00,00,10.70
2011,05,20,00,01,10.70
2011,05,20,00,02,10.70
2011,05,20,00,03,10.70
2011,05,20,00,04,10.70
2011,05,20,00,05,10.70
2011,05,20,00,06,10.70
2011,05,20,00,07,10.60
2011,05,20,00,08,10.60
2011,05,20,00,09,10.60
2011,05,20,00,10,10.60
2011,05,20,00,11,10.60
2011,05,20,00,12,10.60
2011,05,20,00,13,10.60
2011,05,20,00,14,10.60
2011,05,20,00,15,10.60
2011,05,20,00,16,10.60
2011,05,20,00,17,10.60
2011,05,20,00,18,10.60
2011,05,20,00,19,10.60
2011,05,20,00,20,10.60
2011,05,20,00,21,10.60
2011,05,20,00,22,10.60
2011,05,20,00,23,10.60
2011,05,20,00,24,10.60
2011,05,20,00,25,10.60
2011,05,20,00,26,10.60
2011,05,20,00,27,10.60
2011,05,20,00,28,10.60
2011,05,20,00,29,10.60
2011,05,20,00,30,10.50
2011,05,20,00,31,10.40
2011,05,20,00,32,10.40
2011,05,20,00,33,10.40
2011,05,20,00,34,10.40
2011,05,20,00,35,10.40
2011,05,20,00,36,10.40
2011,05,20,00,37,10.40
2011,05,20,00,38,10.40
2011,05,20,00,39,10.40
2011,05,20,00,40,10.40
2011,05,20,00,41,10.40
2011,05,20,00,42,10.40
2011,05,20,00,43,10.40
2011,05,20,00,44,10.40
2011,05,20,00,45,10.40
2011,05,20,00,46,10.40
2011,05,20,00,47,10.40
2011,05,20,00,48,10.40
2011,05,20,00,49,10.40
2011,05,20,00,50,10.40
2011,05,20,00,51,10.30
2011,05,20,00,52,10.30
2011,05,20,00,53,10.30
2011,05,20,00,54,10.30
2011,05,20,00,55,10.30
2011,05,20,00,56,10.30
2011,05,20,00,57,10.30
2011,05,20,00,58,10.30
2011,05,20,00,59,10.30
2011,05,20,01,00,10.20
2011,05,20,01,01,10.20
2011,05,20,01,02,10.20
2011,05,20,01,03,10.20
2011,05,20,01,04,10.20
2011,05,20,01,05,10.20
2011,05,20,01,06,10.20
2011,05,20,01,07,10.20
2011,05,20,01,08,10.20
2011,05,20,01,09,10.20
2011,05,20,01,10,10.20
2011,05,20,01,11,10.10
2011,05,20,01,12,10.10
2011,05,20,01,13,10.10
2011,05,20,01,14,10.00
2011,05,20,01,15,9.90
2011,05,20,01,16,9.90
2011,05,20,01,17,9.80
2011,05,20,01,18,9.80
2011,05,20,01,19,9.70
2011,05,20,01,20,9.70
2011,05,20,01,21,9.70
2011,05,20,01,22,9.70
2011,05,20,01,23,9.60
2011,05,20,01,24,9.60
2011,05,20,01,25,9.50
2011,05,20,01,26,9.50
2011,05,20,01,27,9.40
2011,05,20,01,28,9.40
2011,05,20,01,29,9.40
2011,05,20,01,30,9.40
2011,05,20,01,31,9.30
2011,05,20,01,32,9.30
2011,05,20,01,33,9.30
2011,05,20,01,34,9.30
2011,05,20,01,35,9.30
2011,05,20,01,36,9.30
2011,05,20,01,37,9.30
2011,05,20,01,38,9.40
2011,05,20,01,39,9.40
2011,05,20,01,40,9.40
2011,05,20,01,41,9.40
2011,05,20,01,42,9.40
2011,05,20,01,43,9.40
2011,05,20,01,44,9.50
2011,05,20,01,45,9.50
2011,05,20,01,46,9.50
2011,05,20,01,47,9.50
2011,05,20,01,48,9.50
2011,05,20,01,49,9.50
2011,05,20,01,50,9.50
2011,05,20,01,51,9.50
2011,05,20,01,52,9.50
2011,05,20,01,53,9.50
2011,05,20,01,54,9.40
2011,05,20,01,55,9.40
2011,05,20,01,56,9.40
2011,05,20,01,57,9.30
2011,05,20,01,58,9.30
2011,05,20,01,59,9.20
2011,05,20,02,00,9.20
2011,05,20,02,01,9.20
2011,05,20,02,02,9.10
2011,05,20,02,03,9.10
2011,05,20,02,04,9.00
2011,05,20,02,05,9.00
2011,05,20,02,06,8.90
2011,05,20,02,07,8.90
2011,05,20,02,08,8.90
2011,05,20,02,09,8.80
2011,05,20,02,10,8.80
2011,05,20,02,11,8.70
2011,05,20,02,12,8.70
2011,05,20,02,13,8.70
2011,05,20,02,14,8.70
2011,05,20,02,15,8.70
2011,05,20,02,16,8.70
2011,05,20,02,17,8.70
2011,05,20,02,18,8.70
2011,05,20,02,19,8.60
2011,05,20,02,20,8.60
2011,05,20,02,21,8.60
2011,05,20,02,22,8.50
2011,05,20,02,23,8.50
2011,05,20,02,24,8.50
2011,05,20,02,25,8.30
2011,05,20,02,26,8.20
2011,05,20,02,27,8.10
2011,05,20,02,28,8.10
2011,05,20,02,29,8.00
2011,05,20,02,30,8.00
2011,05,20,02,31,7.90
2011,05,20,02,32,7.90
2011,05,20,02,33,7.90
2011,05,20,02,34,7.90
2011,05,20,02,35,7.80
2011,05,20,02,36,7.80
2011,05,20,02,37,7.80
2011,05,20,02,38,7.80
2011,05,20,02,39,7.80
2011,05,20,02,40,7.80
2011,05,20,02,41,7.80
2011,05,20,02,42,7.80
2011,05,20,02,43,7.80
2011,05,20,02,44,7.80
2011,05,20,02,45,7.70
2011,05,20,02,46,7.80
2011,05,20,02,47,7.80
2011,05,20,02,48,7.80
2011,05,20,02,49,7.80
2011,05,20,02,50,7.80
2011,05,20,02,51,7.80
2011,05,20,02,52,7.80
2011,05,20,02,53,7.80
2011,05,20,02,54,7.70
2011,05,20,02,55,7.70
2011,05,20,02,56,7.70
2011,05,20,02,57,7.70
2011,05,20,02,58,7.70
2011,05,20,02,59,7.70
2011,05,20,03,00,7.70
2011,05,20,03,01,7.70
2011,05,20,03,02,7.70
2011,05,20,03,03,7.70
2011,05,20,03,04,7.70
2011,05,20,03,05,7.70
2011,05,20,03,06,7.70
2011,05,20,03,07,7.70
2011,05,20,03,08,7.70
2011,05,20,03,09,7.70
2011,05,20,03,10,7.70
2011,05,20,03,11,7.70
2011,05,20,03,12,7.70
2011,05,20,03,13,7.70
2011,05,20,03,14,7.60
2011,05,20,03,15,7.60
2011,05,20,03,16,7.60
2011,05,20,03,17,7.60
2011,05,20,03,18,7.60
2011,05,20,03,19,7.60
2011,05,20,03,20,7.60
2011,05,20,03,21,7.60
2011,05,20,03,22,7.60
2011,05,20,03,23,7.60
2011,05,20,03,24,7.60
2011,05,20,03,25,7.60
2011,05,20,03,26,7.60
2011,05,20,03,27,7.60
2011,05,20,03,28,7.60
2011,05,20,03,29,7.50
2011,05,20,03,30,7.50
2011,05,20,03,31,7.50
2011,05,20,03,32,7.50
2011,05,20,03,33,7.50
2011,05,20,03,34,7.50
2011,05,20,03,35,7.50
2011,05,20,03,36,7.50
2011,05,20,03,37,7.40
2011,05,20,03,38,7.40
2011,05,20,03,39,7.40
2011,05,20,03,40,7.40
2011,05,20,03,41,7.40
2011,05,20,03,42,7.40
2011,05,20,03,43,7.30
2011,05,20,03,44,7.30
2011,05,20,03,45,7.30
2011,05,20,03,46,7.30
2011,05,20,03,47,7.30
2011,05,20,03,48,7.30
2011,05,20,03,49,7.30
2011,05,20,03,50,7.30
2011,05,20,03,51,7.30
2011,05,20,03,52,7.30
2011,05,20,03,53,7.20
2011,05,20,03,54,7.20
2011,05,20,03,55,7.20
2011,05,20,03,56,7.20
2011,05,20,03,57,7.20
2011,05,20,03,58,7.10
2011,05,20,03,59,7.10
2011,05,20,04,00,7.10
2011,05,20,04,01,7.10
2011,05,20,04,02,7.00
2011,05,20,04,03,7.00
2011,05,20,04,04,7.00
2011,05,20,04,05,7.00
2011,05,20,04,06,6.90
2011,05,20,04,07,6.90
2011,05,20,04,08,6.90
2011,05,20,04,09,6.90
2011,05,20,04,10,6.90
2011,05,20,04,11,6.80
2011,05,20,04,12,6.80
2011,05,20,04,13,6.80
2011,05,20,04,14,6.80
2011,05,20,04,15,6.80
2011,05,20,04,16,6.80
2011,05,20,04,17,6.80
2011,05,20,04,18,6.80
2011,05,20,04,19,6.80
2011,05,20,04,20,6.90
2011,05,20,04,21,6.90
2011,05,20,04,22,6.90
2011,05,20,04,23,6.90
2011,05,20,04,24,6.90
2011,05,20,04,25,6.90
2011,05,20,04,26,6.90
2011,05,20,04,27,6.90
2011,05,20,04,28,6.90
2011,05,20,04,29,6.90
2011,05,20,04,30,6.80
2011,05,20,04,31,6.80
2011,05,20,04,32,6.80
2011,05,20,04,33,6.80
2011,05,20,04,34,6.80
2011,05,20,04,35,6.80
2011,05,20,04,36,6.80
2011,05,20,04,37,6.80
2011,05,20,04,38,6.90
2011,05,20,04,39,6.90
2011,05,20,04,40,6.90
2011,05,20,04,41,6.90
2011,05,20,04,42,6.90
2011,05,20,04,43,6.90
2011,05,20,04,44,6.90
2011,05,20,04,45,6.90
2011,05,20,04,46,6.90
2011,05,20,04,47,6.90
2011,05,20,04,48,6.90
2011,05,20,04,49,6.80
2011,05,20,04,50,6.80
2011,05,20,04,51,6.90
2011,05,20,04,52,6.90
2011,05,20,04,53,6.90
2011,05,20,04,54,6.90
2011,05,20,04,55,6.80
2011,05,20,04,56,6.80
2011,05,20,04,57,6.80
2011,05,20,04,58,6.80
2011,05,20,04,59,6.80
2011,05,20,05,00,6.80
2011,05,20,05,01,6.80
2011,05,20,05,02,6.80
2011,05,20,05,03,6.80
2011,05,20,05,04,6.80
2011,05,20,05,05,6.80
2011,05,20,05,06,6.70
2011,05,20,05,07,6.70
2011,05,20,05,08,6.70
2011,05,20,05,09,6.70
2011,05,20,05,10,6.70
2011,05,20,05,11,6.70
2011,05,20,05,12,6.60
2011,05,20,05,13,6.60
2011,05,20,05,14,6.60
2011,05,20,05,15,6.60
2011,05,20,05,16,6.60
2011,05,20,05,17,6.60
2011,05,20,05,18,6.60
2011,05,20,05,19,6.50
2011,05,20,05,20,6.40
2011,05,20,05,21,6.40
2011,05,20,05,22,6.30
2011,05,20,05,23,6.20
2011,05,20,05,24,6.20
2011,05,20,05,25,6.20
2011,05,20,05,26,6.20
2011,05,20,05,27,6.20
2011,05,20,05,28,6.20
2011,05,20,05,29,6.20
2011,05,20,05,30,6.20
2011,05,20,05,31,6.20
2011,05,20,05,32,6.20
2011,05,20,05,33,6.20
2011,05,20,05,34,6.30
2011,05,20,05,35,6.30
2011,05,20,05,36,6.30
2011,05,20,05,37,6.30
2011,05,20,05,38,6.30
2011,05,20,05,39,6.30
2011,05,20,05,40,6.30
2011,05,20,05,41,6.30
2011,05,20,05,42,6.30
2011,05,20,05,43,6.30
2011,05,20,05,44,6.30
2011,05,20,05,45,6.30
2011,05,20,05,46,6.30
2011,05,20,05,47,6.30
2011,05,20,05,48,6.30
2011,05,20,05,49,6.30
2011,05,20,05,50,6.40
2011,05,20,05,51,6.40
2011,05,20,05,52,6.40
2011,05,20,05,53,6.40
2011,05,20,05,54,6.40
2011,05,20,05,55,6.40
2011,05,20,05,56,6.40
2011,05,20,05,57,6.40
2011,05,20,05,58,6.50
2011,05,20,05,59,6.60
2011,05,20,06,00,6.60
2011,05,20,06,01,6.60
2011,05,20,06,02,6.60
2011,05,20,06,03,6.60
2011,05,20,06,04,6.60
2011,05,20,06,05,6.60
2011,05,20,06,06,6.60
2011,05,20,06,07,6.50
2011,05,20,06,08,6.40
2011,05,20,06,09,6.40
2011,05,20,06,10,6.40
2011,05,20,06,11,6.40
2011,05,20,06,12,6.40
2011,05,20,06,13,6.40
2011,05,20,06,14,6.40
2011,05,20,06,15,6.40
2011,05,20,06,16,6.40
2011,05,20,06,17,6.40
2011,05,20,06,18,6.50
2011,05,20,06,19,6.60
2011,05,20,06,20,6.60
2011,05,20,06,21,6.60
2011,05,20,06,22,6.60
2011,05,20,06,23,6.60
2011,05,20,06,24,6.60
2011,05,20,06,25,6.60
2011,05,20,06,26,6.60
2011,05,20,06,27,6.70
2011,05,20,06,28,6.70
2011,05,20,06,29,6.70
2011,05,20,06,30,6.80
2011,05,20,06,31,6.80
2011,05,20,06,32,6.80
2011,05,20,06,33,6.80
2011,05,20,06,34,6.90
2011,05,20,06,35,7.00
2011,05,20,06,36,7.20
2011,05,20,06,37,7.30
2011,05,20,06,38,7.40
2011,05,20,06,39,7.50
2011,05,20,06,40,7.70
2011,05,20,06,41,7.80
2011,05,20,06,42,8.00
2011,05,20,06,43,8.10
2011,05,20,06,44,8.30
2011,05,20,06,45,8.40
2011,05,20,06,46,8.50
2011,05,20,06,47,8.60
2011,05,20,06,48,8.70
2011,05,20,06,49,8.70
2011,05,20,06,50,8.80
2011,05,20,06,51,8.90
2011,05,20,06,52,8.90
2011,05,20,06,53,9.00
2011,05,20,06,54,9.00
2011,05,20,06,55,9.10
2011,05,20,06,56,9.10
2011,05,20,06,57,9.20
2011,05,20,06,58,9.20
2011,05,20,06,59,9.20
2011,05,20,07,00,9.30
2011,05,20,07,01,9.40
2011,05,20,07,02,9.40
2011,05,20,07,03,9.50
2011,05,20,07,04,9.60
2011,05,20,07,05,9.70
2011,05,20,07,06,9.70
2011,05,20,07,07,9.70
2011,05,20,07,08,9.80
2011,05,20,07,09,9.80
2011,05,20,07,10,9.90
2011,05,20,07,11,9.90
2011,05,20,07,12,9.90
2011,05,20,07,13,9.90
2011,05,20,07,14,9.90
2011,05,20,07,15,10.00
2011,05,20,07,16,10.10
2011,05,20,07,17,10.20
2011,05,20,07,18,10.20
2011,05,20,07,19,10.20
2011,05,20,07,20,10.20
2011,05,20,07,21,10.20
2011,05,20,07,22,10.10
2011,05,20,07,23,10.10
2011,05,20,07,24,10.10
2011,05,20,07,25,10.10
2011,05,20,07,26,10.10
2011,05,20,07,27,10.10
2011,05,20,07,28,10.10
2011,05,20,07,29,10.10
2011,05,20,07,30,10.10
2011,05,20,07,31,10.10
2011,05,20,07,32,10.10
2011,05,20,07,33,10.10
2011,05,20,07,34,10.20
2011,05,20,07,35,10.20
2011,05,20,07,36,10.20
2011,05,20,07,37,10.30
2011,05,20,07,38,10.30
2011,05,20,07,39,10.40
2011,05,20,07,40,10.60
2011,05,20,07,41,10.80
2011,05,20,07,42,10.90
2011,05,20,07,43,11.10
2011,05,20,07,44,11.20
2011,05,20,07,45,11.30
2011,05,20,07,46,11.50
2011,05,20,07,47,11.60
2011,05,20,07,48,11.70
2011,05,20,07,49,11.80
2011,05,20,07,50,11.90
2011,05,20,07,51,11.90
2011,05,20,07,52,12.00
2011,05,20,07,53,12.00
2011,05,20,07,54,12.10
2011,05,20,07,55,12.10
2011,05,20,07,56,12.20
2011,05,20,07,57,12.30
2011,05,20,07,58,12.40
2011,05,20,07,59,12.50
2011,05,20,08,00,12.60
2011,05,20,08,01,12.70
2011,05,20,08,02,12.80
2011,05,20,08,03,12.80
2011,05,20,08,04,12.80
2011,05,20,08,05,12.80
2011,05,20,08,06,12.80
2011,05,20,08,07,12.80
2011,05,20,08,08,12.80
2011,05,20,08,09,12.80
2011,05,20,08,10,12.80
2011,05,20,08,11,12.90
2011,05,20,08,12,13.00
2011,05,20,08,13,13.00
2011,05,20,08,14,13.10
2011,05,20,08,15,13.20
2011,05,20,08,16,13.20
2011,05,20,08,17,13.20
2011,05,20,08,18,13.30
2011,05,20,08,19,13.30
2011,05,20,08,20,13.30
2011,05,20,08,21,13.30
2011,05,20,08,22,13.30
2011,05,20,08,23,13.40
2011,05,20,08,24,13.40
2011,05,20,08,25,13.40
2011,05,20,08,26,13.50
2011,05,20,08,27,13.60
2011,05,20,08,28,13.60
2011,05,20,08,29,13.60
2011,05,20,08,30,13.60
2011,05,20,08,31,13.70
2011,05,20,08,32,13.70
2011,05,20,08,33,13.70
2011,05,20,08,34,13.80
2011,05,20,08,35,13.80
2011,05,20,08,36,13.90
2011,05,20,08,37,13.80
2011,05,20,08,38,13.60
2011,05,20,08,39,13.30
2011,05,20,08,40,13.10
2011,05,20,08,41,13.00
2011,05,20,08,42,12.80
2011,05,20,08,43,12.70
2011,05,20,08,44,12.50
2011,05,20,08,45,12.40
2011,05,20,08,46,12.30
2011,05,20,08,47,12.10
2011,05,20,08,48,12.00
2011,05,20,08,49,11.90
2011,05,20,08,50,11.80
2011,05,20,08,51,11.80
2011,05,20,08,52,11.70
2011,05,20,08,53,11.60
2011,05,20,08,54,11.40
2011,05,20,08,55,11.30
2011,05,20,08,56,11.20
2011,05,20,08,57,11.10
2011,05,20,08,58,11.00
2011,05,20,08,59,10.90
2011,05,20,09,00,10.90
2011,05,20,09,01,10.80
2011,05,20,09,02,10.70
2011,05,20,09,03,10.80
2011,05,20,09,04,10.80
2011,05,20,09,05,10.80
2011,05,20,09,06,10.80
2011,05,20,09,07,10.90
2011,05,20,09,08,10.90
2011,05,20,09,09,10.90
2011,05,20,09,10,10.90
2011,05,20,09,11,11.00
2011,05,20,09,12,11.10
2011,05,20,09,13,11.10
2011,05,20,09,14,11.10
2011,05,20,09,15,11.10
2011,05,20,09,16,11.10
2011,05,20,09,17,11.20
2011,05,20,09,18,11.30
2011,05,20,09,19,11.30
2011,05,20,09,20,11.30
2011,05,20,09,21,11.30
2011,05,20,09,22,11.40
2011,05,20,09,23,11.40
2011,05,20,09,24,11.40
2011,05,20,09,25,11.40
2011,05,20,09,26,11.40
2011,05,20,09,27,11.40
2011,05,20,09,28,11.60
2011,05,20,09,29,11.60
2011,05,20,09,30,11.60
2011,05,20,09,31,11.60
2011,05,20,09,32,11.60
2011,05,20,09,33,11.60
2011,05,20,09,34,11.60
2011,05,20,09,35,11.70
2011,05,20,09,36,11.70
2011,05,20,09,37,11.70
2011,05,20,09,38,11.70
2011,05,20,09,39,11.70
2011,05,20,09,40,11.70
2011,05,20,09,41,11.70
2011,05,20,09,42,11.80
2011,05,20,09,43,11.80
2011,05,20,09,44,11.90
2011,05,20,09,45,11.90
2011,05,20,09,46,12.00
2011,05,20,09,47,12.00
2011,05,20,09,48,12.10
2011,05,20,09,49,12.20
2011,05,20,09,50,12.30
2011,05,20,09,51,12.30
2011,05,20,09,52,12.30
2011,05,20,09,53,12.30
2011,05,20,09,54,12.30
2011,05,20,09,55,12.40
2011,05,20,09,56,12.40
2011,05,20,09,57,12.50
2011,05,20,09,58,12.60
2011,05,20,09,59,12.60
2011,05,20,10,00,12.70
2011,05,20,10,01,12.70
2011,05,20,10,02,12.80
2011,05,20,10,03,12.80
2011,05,20,10,04,12.90
2011,05,20,10,05,12.90
2011,05,20,10,06,13.00
2011,05,20,10,07,13.10
2011,05,20,10,08,13.20
2011,05,20,10,09,13.30
2011,05,20,10,10,13.40
2011,05,20,10,11,13.50
2011,05,20,10,12,13.50
2011,05,20,10,13,13.60
2011,05,20,10,14,13.70
2011,05,20,10,15,13.90
2011,05,20,10,16,14.00
2011,05,20,10,17,14.10
2011,05,20,10,18,14.20
2011,05,20,10,19,14.20
2011,05,20,10,20,14.30
2011,05,20,10,21,14.40
2011,05,20,10,22,14.40
2011,05,20,10,23,14.40
2011,05,20,10,24,14.40
2011,05,20,10,25,14.50
2011,05,20,10,26,14.60
2011,05,20,10,27,14.60
2011,05,20,10,28,14.60
2011,05,20,10,29,14.60
2011,05,20,10,30,14.60
2011,05,20,10,31,14.50
2011,05,20,10,32,14.50
2011,05,20,10,33,14.50
2011,05,20,10,34,14.50
2011,05,20,10,35,14.50
2011,05,20,10,36,14.50
2011,05,20,10,37,14.50
2011,05,20,10,38,14.50
2011,05,20,10,39,14.40
2011,05,20,10,40,14.20
2011,05,20,10,41,14.10
2011,05,20,10,42,13.90
2011,05,20,10,43,13.70
2011,05,20,10,44,13.50
2011,05,20,10,45,13.30
2011,05,20,10,46,13.20
2011,05,20,10,47,13.20
2011,05,20,10,48,13.10
2011,05,20,10,49,13.00
2011,05,20,10,50,12.90
2011,05,20,10,51,12.90
2011,05,20,10,52,12.90
2011,05,20,10,53,12.90
2011,05,20,10,54,13.00
2011,05,20,10,55,13.10
2011,05,20,10,56,13.10
2011,05,20,10,57,13.20
2011,05,20,10,58,13.30
2011,05,20,10,59,13.40
2011,05,20,11,00,13.50
2011,05,20,11,01,13.50
2011,05,20,11,02,13.60
2011,05,20,11,03,13.70
2011,05,20,11,04,13.70
2011,05,20,11,05,13.80
2011,05,20,11,06,13.90
2011,05,20,11,07,13.90
2011,05,20,11,08,13.80
2011,05,20,11,09,13.80
2011,05,20,11,10,13.70
2011,05,20,11,11,13.70
2011,05,20,11,12,13.60
2011,05,20,11,13,13.50
2011,05,20,11,14,13.40
2011,05,20,11,15,13.40
2011,05,20,11,16,13.30
2011,05,20,11,17,13.30
2011,05,20,11,18,13.30
2011,05,20,11,19,13.40
2011,05,20,11,20,13.50
2011,05,20,11,21,13.50
2011,05,20,11,22,13.60
2011,05,20,11,23,13.70
2011,05,20,11,24,13.90
2011,05,20,11,25,13.90
2011,05,20,11,26,13.90
2011,05,20,11,27,13.90
2011,05,20,11,28,13.90
2011,05,20,11,29,13.90
2011,05,20,11,30,14.00
2011,05,20,11,31,14.10
2011,05,20,11,32,14.20
2011,05,20,11,33,14.20
2011,05,20,11,34,14.40
2011,05,20,11,35,14.50
2011,05,20,11,36,14.60
2011,05,20,11,37,14.80
2011,05,20,11,38,14.90
2011,05,20,11,39,14.90
2011,05,20,11,40,15.00
2011,05,20,11,41,15.20
2011,05,20,11,42,15.30
2011,05,20,11,43,15.20
2011,05,20,11,44,15.10
2011,05,20,11,45,15.10
2011,05,20,11,46,15.10
2011,05,20,11,47,15.00
2011,05,20,11,48,15.10
2011,05,20,11,49,15.20
2011,05,20,11,50,15.20
2011,05,20,11,51,15.30
2011,05,20,11,52,15.30
2011,05,20,11,53,15.40
2011,05,20,11,54,15.50
2011,05,20,11,55,15.40
2011,05,20,11,56,15.30
2011,05,20,11,57,15.10
2011,05,20,11,58,15.00
2011,05,20,11,59,14.90
2011,05,20,12,00,14.80
2011,05,20,12,01,14.80
2011,05,20,12,02,14.80
2011,05,20,12,03,15.00
2011,05,20,12,04,15.10
2011,05,20,12,05,15.40
2011,05,20,12,06,15.60
2011,05,20,12,07,15.70
2011,05,20,12,08,15.70
2011,05,20,12,09,15.70
2011,05,20,12,10,15.70
2011,05,20,12,11,15.70
2011,05,20,12,12,15.80
2011,05,20,12,13,15.80
2011,05,20,12,14,15.70
2011,05,20,12,15,15.70
2011,05,20,12,16,15.70
2011,05,20,12,17,15.60
2011,05,20,12,18,15.50
2011,05,20,12,19,15.50
2011,05,20,12,20,15.60
2011,05,20,12,21,15.70
2011,05,20,12,22,15.80
2011,05,20,12,23,16.00
2011,05,20,12,24,16.10
2011,05,20,12,25,16.20
2011,05,20,12,26,16.30
2011,05,20,12,27,16.40
2011,05,20,12,28,16.50
2011,05,20,12,29,16.70
2011,05,20,12,30,16.70
2011,05,20,12,31,16.90
2011,05,20,12,32,17.00
2011,05,20,12,33,17.10
2011,05,20,12,34,17.30
2011,05,20,12,35,17.30
2011,05,20,12,36,17.30
2011,05,20,12,37,17.40
2011,05,20,12,38,17.50
2011,05,20,12,39,17.60
2011,05,20,12,40,17.60
2011,05,20,12,41,17.50
2011,05,20,12,42,17.50
2011,05,20,12,43,17.50
2011,05,20,12,44,17.60
2011,05,20,12,45,17.70
2011,05,20,12,46,17.70
2011,05,20,12,47,17.70
2011,05,20,12,48,17.70
2011,05,20,12,49,17.60
2011,05,20,12,50,17.60
2011,05,20,12,51,17.70
2011,05,20,12,52,17.70
2011,05,20,12,53,17.80
2011,05,20,12,54,17.90
2011,05,20,12,55,17.90
2011,05,20,12,56,18.00
2011,05,20,12,57,18.00
2011,05,20,12,58,18.00
2011,05,20,12,59,18.00
2011,05,20,13,00,18.00
2011,05,20,13,01,18.10
2011,05,20,13,02,18.10
2011,05,20,13,03,18.10
2011,05,20,13,04,17.90
2011,05,20,13,05,17.60
2011,05,20,13,06,17.40
2011,05,20,13,07,17.40
2011,05,20,13,08,17.40
2011,05,20,13,09,17.40
2011,05,20,13,10,17.00
2011,05,20,13,11,16.80
2011,05,20,13,12,16.40
2011,05,20,13,13,16.10
2011,05,20,13,14,16.00
2011,05,20,13,15,15.90
2011,05,20,13,16,15.90
2011,05,20,13,17,15.90
2011,05,20,13,18,15.90
2011,05,20,13,19,15.90
2011,05,20,13,20,15.80
2011,05,20,13,21,15.80
2011,05,20,13,22,15.60
2011,05,20,13,23,15.50
2011,05,20,13,24,15.30
2011,05,20,13,25,15.30
2011,05,20,13,26,15.20
2011,05,20,13,27,15.00
2011,05,20,13,28,15.00
2011,05,20,13,29,14.80
2011,05,20,13,30,14.70
2011,05,20,13,31,14.70
2011,05,20,13,32,14.80
2011,05,20,13,33,14.80
2011,05,20,13,34,14.70
2011,05,20,13,35,14.50
2011,05,20,13,36,14.40
2011,05,20,13,37,14.50
2011,05,20,13,38,14.70
2011,05,20,13,39,14.80
2011,05,20,13,40,15.00
2011,05,20,13,41,15.00
2011,05,20,13,42,14.90
2011,05,20,13,43,14.60
2011,05,20,13,44,14.50
2011,05,20,13,45,14.40
2011,05,20,13,46,14.40
2011,05,20,13,47,14.40
2011,05,20,13,48,14.60
2011,05,20,13,49,14.60
2011,05,20,13,50,14.70
2011,05,20,13,51,14.70
2011,05,20,13,52,14.80
2011,05,20,13,53,14.60
2011,05,20,13,54,14.50
2011,05,20,13,55,14.40
2011,05,20,13,56,14.40
2011,05,20,13,57,14.30
2011,05,20,13,58,14.30
2011,05,20,13,59,14.30
2011,05,20,14,00,14.30
2011,05,20,14,01,14.30
2011,05,20,14,02,14.40
2011,05,20,14,03,14.60
2011,05,20,14,04,14.80
2011,05,20,14,05,14.90
2011,05,20,14,06,15.00
2011,05,20,14,07,15.10
2011,05,20,14,08,15.20
2011,05,20,14,09,15.30
2011,05,20,14,10,15.30
2011,05,20,14,11,15.40
2011,05,20,14,12,15.60
2011,05,20,14,13,15.80
2011,05,20,14,14,15.90
2011,05,20,14,15,15.90
2011,05,20,14,16,16.00
2011,05,20,14,17,15.80
2011,05,20,14,18,15.70
2011,05,20,14,19,15.50
2011,05,20,14,20,15.40
2011,05,20,14,21,15.30
2011,05,20,14,22,15.30
2011,05,20,14,23,15.30
2011,05,20,14,24,15.30
2011,05,20,14,25,15.30
2011,05,20,14,26,15.20
2011,05,20,14,27,15.20
2011,05,20,14,28,15.10
2011,05,20,14,29,15.10
2011,05,20,14,30,15.20
2011,05,20,14,31,15.30
2011,05,20,14,32,15.30
2011,05,20,14,33,15.40
2011,05,20,14,34,15.60
2011,05,20,14,35,15.80
2011,05,20,14,36,16.00
2011,05,20,14,37,16.30
2011,05,20,14,38,16.50
2011,05,20,14,39,16.60
2011,05,20,14,40,16.60
2011,05,20,14,41,16.70
2011,05,20,14,42,16.90
2011,05,20,14,43,17.10
2011,05,20,14,44,17.30
2011,05,20,14,45,17.50
2011,05,20,14,46,17.80
2011,05,20,14,47,18.20
2011,05,20,14,48,18.70
2011,05,20,14,49,19.10
2011,05,20,14,50,19.50
2011,05,20,14,51,19.70
2011,05,20,14,52,19.90
2011,05,20,14,53,20.20
2011,05,20,14,54,20.40
2011,05,20,14,55,20.50
2011,05,20,14,56,20.50
2011,05,20,14,57,20.50
2011,05,20,14,58,20.50
2011,05,20,14,59,20.70
2011,05,20,15,00,20.80
2011,05,20,15,01,20.80
2011,05,20,15,02,20.90
2011,05,20,15,03,21.00
2011,05,20,15,04,21.10
2011,05,20,15,05,21.30
2011,05,20,15,06,21.30
2011,05,20,15,07,21.30
2011,05,20,15,08,21.30
2011,05,20,15,09,21.30
2011,05,20,15,10,21.30
2011,05,20,15,11,21.30
2011,05,20,15,12,21.30
2011,05,20,15,13,21.30
2011,05,20,15,14,21.30
2011,05,20,15,15,21.30
2011,05,20,15,16,21.30
2011,05,20,15,17,21.20
2011,05,20,15,18,21.20
2011,05,20,15,19,21.20
2011,05,20,15,20,21.20
2011,05,20,15,21,21.20
2011,05,20,15,22,21.10
2011,05,20,15,23,21.10
2011,05,20,15,24,21.30
2011,05,20,15,25,21.30
2011,05,20,15,26,21.20
2011,05,20,15,27,21.10
2011,05,20,15,28,21.00
2011,05,20,15,29,20.90
2011,05,20,15,30,20.90
2011,05,20,15,31,20.80
2011,05,20,15,32,20.70
2011,05,20,15,33,20.70
2011,05,20,15,34,20.70
2011,05,20,15,35,20.70
2011,05,20,15,36,20.70
2011,05,20,15,37,20.60
2011,05,20,15,38,20.70
2011,05,20,15,39,20.70
2011,05,20,15,40,20.70
2011,05,20,15,41,20.60
2011,05,20,15,42,20.60
2011,05,20,15,43,20.60
2011,05,20,15,44,20.50
2011,05,20,15,45,20.40
2011,05,20,15,46,20.40
2011,05,20,15,47,20.50
2011,05,20,15,48,20.60
2011,05,20,15,49,20.70
2011,05,20,15,50,20.70
2011,05,20,15,51,20.80
2011,05,20,15,52,20.90
2011,05,20,15,53,20.90
2011,05,20,15,54,20.80
2011,05,20,15,55,20.80
2011,05,20,15,56,20.80
2011,05,20,15,57,20.70
2011,05,20,15,58,20.60
2011,05,20,15,59,20.50
2011,05,20,16,00,20.50
2011,05,20,16,01,20.40
2011,05,20,16,02,20.40
2011,05,20,16,03,20.30
2011,05,20,16,04,20.20
2011,05,20,16,05,20.20
2011,05,20,16,06,20.20
2011,05,20,16,07,20.20
2011,05,20,16,08,20.20
2011,05,20,16,09,20.20
2011,05,20,16,10,20.20
2011,05,20,16,11,20.20
2011,05,20,16,12,20.10
2011,05,20,16,13,20.10
2011,05,20,16,14,20.20
2011,05,20,16,15,20.20
2011,05,20,16,16,20.30
2011,05,20,16,17,20.30
2011,05,20,16,18,20.30
2011,05,20,16,19,20.30
2011,05,20,16,20,20.40
2011,05,20,16,21,20.50
2011,05,20,16,22,20.50
2011,05,20,16,23,20.60
2011,05,20,16,24,20.70
2011,05,20,16,25,20.70
2011,05,20,16,26,20.80
2011,05,20,16,27,20.80
2011,05,20,16,28,20.80
2011,05,20,16,29,20.80
2011,05,20,16,30,20.80
2011,05,20,16,31,20.80
2011,05,20,16,32,20.80
2011,05,20,16,33,20.70
2011,05,20,16,34,20.80
2011,05,20,16,35,20.80
2011,05,20,16,36,20.80
2011,05,20,16,37,20.80
2011,05,20,16,38,20.70
2011,05,20,16,39,20.70
2011,05,20,16,40,20.60
2011,05,20,16,41,20.70
2011,05,20,16,42,20.80
2011,05,20,16,43,20.90
2011,05,20,16,44,21.00
2011,05,20,16,45,21.00
2011,05,20,16,46,21.00
2011,05,20,16,47,21.00
2011,05,20,16,48,21.10
2011,05,20,16,49,21.20
2011,05,20,16,50,21.20
2011,05,20,16,51,21.20
2011,05,20,16,52,21.10
2011,05,20,16,53,21.10
2011,05,20,16,54,21.10
2011,05,20,16,55,21.20
2011,05,20,16,56,21.30
2011,05,20,16,57,21.30
2011,05,20,16,58,21.30
2011,05,20,16,59,21.30
2011,05,20,17,00,21.30
2011,05,20,17,01,21.20
2011,05,20,17,02,21.10
2011,05,20,17,03,21.00
2011,05,20,17,04,21.00
2011,05,20,17,05,20.90
2011,05,20,17,06,20.80
2011,05,20,17,07,20.80
2011,05,20,17,08,20.70
2011,05,20,17,09,20.70
2011,05,20,17,10,20.70
2011,05,20,17,11,20.80
2011,05,20,17,12,20.80
2011,05,20,17,13,20.80
2011,05,20,17,14,20.70
2011,05,20,17,15,20.70
2011,05,20,17,16,20.70
2011,05,20,17,17,20.70
2011,05,20,17,18,20.80
2011,05,20,17,19,20.80
2011,05,20,17,20,20.90
2011,05,20,17,21,20.80
2011,05,20,17,22,20.70
2011,05,20,17,23,20.60
2011,05,20,17,24,20.70
2011,05,20,17,25,20.70
2011,05,20,17,26,20.70
2011,05,20,17,27,20.70
2011,05,20,17,28,20.60
2011,05,20,17,29,20.50
2011,05,20,17,30,20.40
2011,05,20,17,31,20.40
2011,05,20,17,32,20.40
2011,05,20,17,33,20.40
2011,05,20,17,34,20.40
2011,05,20,17,35,20.40